Showing default

FLOCK 4G 32, 62643

Orbit data source: Space-Track

FLOCK 4G 32, 62643 is a payload satellite owned by Planet (US) in SSO that was launched on Tue, 14 Jan 2025 UTC via an FALCON 9 launch vehicle from the Air Force Western Test Range (AFWTR). Payload-class satellites include a variety of spacecraft equipped with specific instruments for various scientific and technological missions. These include communications satellites like Starlink; space stations such as the ISS; scientific satellites like the Hubble; Earth observation satellites from companies like Planet Labs, Umbra, and HawkEye 360; GPS; miniature CubeSats for education and research; and military/defense satellites.

Loading next visibility...
Identifier
62643, 2025-009AL
Orbit
SSO
Country
Flag of USUS
Related business
Manufacturer
Planet
Mission
Operational Commercial Imaging
Bus & Motor
CUBESAT 3U, Unknown motor
Mass
5.7 kg wet, 5.7 kg dry
Launch date (UTC)
2025-01-14 (10 months ago)
Launch vehicle
FALCON 9
Launch site
Air Force Western Test Range (AFWTR)
Object type
Payload
Rocket body
Debris
Shape & HBR
Box + 2 Pan, 1.0 m
Radar Cross Section
0.072 m², Medium (>0.1 m² and < 1m²)

Expand to show TLE details & history
Last TLE update: 15 hours ago

TLE from 15 hours ago
0 FLOCK 4G 32
1 62643U 25009AL  25308.63568647  .00050572  00000-0  17815-2 0  9993
2 62643  97.4147  27.1883 0000757  77.6433 282.4892 15.29123903 44652
Epoch: 2025-11-04T15:15Z
TLE epoch observation values (Epoch: 2025-11-04T15:15:23.311Z)
Latitude
0.00003°
Longitude
114.22129°
Altitude
481.42 km
Speed
7.625 km/s
True Right ascension
01h 48m 45s
True Declination
0° 00' 00"
Sunlit
Object was in full shadow at epoch
Visualization orbit readout
Latitude
Unknown
Longitude
Unknown
Altitude
Unknown
Speed
Unknown
Apparent Right ascension
Unknown
Apparent Declination
Unknown
Sunlit
N/A
Visualization observer readout
Local Sidereal Time
02:25:05
Azimuth
Unknown
Elevation
Unknown
Doppler factor
Unknown
Orbital elements
Apogee altitude
475.903 km
Perigee altitude
474.865 km
Semi-major axis
6,853.521 km
Eccentricity
0.00008
Inclination
97.4147°
RAAN
27.1883°
Arg. of periapsis
77.6433°
True anomaly
282.48073°
Mean anomaly
282.4892°
Eccentric anomaly
282.48497°
Mean motion
3.82536 °/min
Orbital period
94.11 mins
BSTAR
0.0017815
Loading maneuver chart data...
Computing Atmospheric mass density...
Loading historical data...
Loading historical data...
Loading historical data...
Loading historical data...
Loading historical data...
Loading historical data...
Loading historical data...

Documentation

Showing up to 5 results
|